RH
14 14 14 14 10 7 10 14 16 27 41 52 82 94 100 77 27 50 95 50 55 47 75 78 83 92 97 92 94 85 54 30 29 37 56 37 24 22 22 20 18 14 12 9 6
18 18 19 16 11 7 10 16 21 38 56 53 82 92 92 89 74 39 28 92 46 54 46 74 79 80 91 94 91 92 54 57 57 63 67 45 28 27 24 19 18 17 16 11 8
21 22 20 17 10 7 13 25 35 48 70 75 82 88 72 65 74 74 54 32 94 41 56 46 67 78 86 85 82 74 78 62 81 75 60 44 35 32 39 26 22 21 22 18 11
27 24 22 16 9 7 19 33 44 44 58 66 75 85 53 47 53 63 71 58 37 93 45 57 45 63 75 75 76 68 71 93 96 71 67 50 50 45 47 41 32 28 27 21 17
31 25 21 16 8 9 23 37 44 35 23 20 26 42 77 43 35 54 60 67 56 51 90 48 59 46 55 72 71 72 72 88 97 93 69 68 62 48 47 47 38 32 32 29 26
29 24 24 13 8 12 28 37 39 36 35 33 29 20 27 49 22 26 33 50 68 49 51 90 56 54 46 51 69 69 68 68 83 79 90 72 66 62 53 51 39 38 39 33 29
23 24 21 10 9 20 30 35 36 36 37 36 36 35 33 28 28 15 20 29 61 69 37 37 89 83 61 44 50 65 68 67 67 74 74 93 80 54 58 54 46 41 45 40 33
22 25 22 8 10 16 20 30 31 29 29 27 24 25 26 30 26 29 12 16 33 61 67 43 79 97 95 55 43 45 61 64 65 64 67 72 72 74 80 58 52 47 46 43 36
20 24 14 7 8 15 24 27 25 22 19 16 16 18 18 19 28 28 21 11 12 44 72 64 82 97 99 81 54 44 42 57 60 62 62 59 58 64 66 70 66 62 56 43 39
22 20 10 8 17 23 23 23 19 14 11 7 6 6 9 11 14 27 28 17 10 18 94 96 87 91 89 90 56 43 36 36 48 53 55 57 54 54 55 53 54 55 50 43 40
20 16 8 17 26 26 23 18 12 7 5 4 3 2 3 4 7 11 20 22 11 9 34 97 100 78 70 76 75 56 50 40 39 46 47 48 49 48 50 49 46 45 45 42 39
20 11 14 27 31 26 19 12 8 6 4 7 4 4 6 10 4 5 9 12 13 12 10 77 90 84 100 100 99 82 63 54 44 39 42 41 41 42 42 43 41 40 38 37 36
15 14 27 32 30 20 13 7 5 3 3 24 35 28 37 50 37 23 16 31 12 10 9 11 36 84 100 100 100 91 52 58 51 44 32 34 36 34 35 36 36 35 34 32 30
17 28 35 32 21 13 6 5 5 6 22 34 46 70 73 73 25 78 100 100 97 22 9 9 14 58 88 100 97 97 82 57 66 51 40 30 28 31 30 28 28 29 28 27 28
27 36 34 25 16 6 6 6 14 48 47 59 99 100 100 86 70 98 99 99 96 100 44 15 10 10 55 73 99 91 100 86 82 64 46 37 29 26 29 24 22 23 25 22 21
39 39 28 15 8 5 6 17 57 69 67 66 100 100 99 100 72 100 100 100 100 100 100 62 34 27 13 29 40 98 100 99 97 83 57 41 32 25 26 24 21 21 22 20 18
44 34 18 13 6 4 18 58 65 67 81 97 99 100 97 100 88 84 87 100 100 100 100 100 94 91 45 18 63 99 100 100 100 96 49 46 38 25 28 24 23 21 22 22 17
44 25 16 9 4 7 50 80 65 64 73 96 94 98 98 100 98 87 100 100 100 100 99 100 100 75 48 49 19 52 97 96 94 76 61 50 35 28 29 32 25 24 23 24 19
40 22 12 5 4 16 76 78 55 67 80 85 94 97 100 100 100 96 90 99 100 100 100 100 100 95 97 99 49 42 97 100 98 86 74 67 43 34 32 32 31 27 25 24 24
32 18 9 4 7 35 83 77 69 69 77 89 99 100 100 100 100 99 100 97 100 100 100 99 100 100 92 100 95 51 87 100 99 100 89 64 61 52 36 36 37 29 27 26 27
25 14 9 6 14 27 56 66 71 78 71 92 97 89 99 100 100 94 93 97 97 87 100 100 94 99 100 100 95 53 90 93 99 82 78 78 70 74 48 39 40 36 30 27 28
22 11 7 10 20 56 57 52 66 58 57 89 84 76 100 100 100 82 63 94 93 100 78 94 100 100 86 98 99 94 63 87 96 87 67 83 100 98 77 47 42 41 36 31 27
16 11 8 21 30 48 79 70 59 82 90 81 89 100 99 96 100 100 88 81 99 92 96 84 100 100 100 77 80 74 56 91 100 100 92 74 99 100 100 62 46 43 38 33 30
13 9 14 32 48 51 82 73 65 80 93 72 81 95 97 97 92 99 95 87 89 81 93 100 99 100 99 100 97 81 57 40 84 94 97 85 93 96 100 84 57 41 42 38 31
12 9 13 32 52 62 78 70 53 78 73 67 73 71 89 100 91 100 100 99 84 84 80 95 95 98 100 98 96 98 100 86 41 68 78 89 91 100 100 100 72 53 38 43 38
13 8 19 44 40 64 76 68 65 93 78 77 54 72 69 89 100 100 97 100 72 75 96 87 53 64 78 87 92 79 80 88 85 39 54 61 86 100 100 99 90 61 57 42 43
11 9 19 41 49 49 50 57 57 72 96 72 72 56 56 63 100 100 93 90 99 100 100 100 100 100 85 88 87 81 70 76 84 53 32 44 63 94 93 98 93 84 52 51 45
Wind_Speed
62 64 60 58 53 47 45 42 42 40 38 40 44 46 43 42 45 44 46 41 41 39 42 42 40 40 42 40 48 43 43 44 42 37 33 41 45 37 42 41 38 34 30 32 31
65 65 65 59 54 49 45 42 39 37 34 37 41 41 43 38 43 45 45 50 42 43 41 44 42 41 43 42 42 47 52 35 35 35 36 41 45 36 42 41 37 35 31 33 34
66 67 64 59 53 49 45 39 37 36 32 35 38 42 42 41 39 43 46 46 52 43 46 43 46 47 45 45 44 41 38 46 37 36 39 43 45 36 38 38 35 36 32 34 34
66 60 59 58 53 48 43 39 37 36 35 34 35 41 42 44 40 41 42 47 48 54 45 48 47 49 48 46 45 45 42 45 44 44 39 43 42 37 36 37 37 37 35 36 34
64 65 63 60 52 47 43 38 38 37 36 35 37 38 44 43 33 40 43 44 48 50 52 48 49 47 49 48 48 49 45 46 50 48 47 43 39 40 40 41 39 38 34 34 34
66 64 67 58 53 47 42 40 40 40 41 41 42 43 43 41 35 38 40 40 45 51 50 53 48 49 48 49 50 50 47 46 48 45 48 46 41 43 42 44 42 38 35 34 36
64 65 64 58 52 47 44 44 44 45 47 48 48 51 50 38 41 40 39 38 42 45 51 49 52 53 52 50 50 52 52 50 49 49 46 49 50 46 40 44 43 38 36 37 38
66 68 66 58 53 50 48 47 47 50 51 52 53 54 51 46 49 45 41 41 43 42 48 52 54 54 56 54 53 56 56 55 51 51 50 48 45 46 48 46 41 37 36 38 39
64 66 63 58 54 51 51 52 54 55 55 55 55 60 56 50 50 54 47 44 44 45 44 53 56 55 55 53 55 54 55 55 52 51 51 51 47 46 45 45 44 43 41 40 40
64 66 62 58 54 54 57 57 57 57 57 57 56 58 57 56 57 57 57 50 49 49 45 53 57 57 54 60 58 54 54 55 53 51 53 51 50 49 48 47 47 47 45 43 42
63 65 61 57 56 59 61 60 59 60 58 56 56 57 55 59 60 61 62 60 57 58 53 44 51 57 53 50 54 53 53 50 46 44 51 51 50 47 47 47 47 46 46 45 43
65 62 60 57 60 64 66 63 62 60 55 42 44 48 44 47 56 58 66 65 63 58 57 57 50 48 50 51 57 57 51 50 48 49 55 53 53 49 49 49 48 46 45 44 43
62 61 58 59 63 67 66 65 62 58 47 18 32 26 24 37 40 41 51 52 65 63 63 60 53 54 55 56 48 52 54 51 48 50 54 54 55 51 48 49 48 47 45 45 44
59 59 59 61 66 66 64 61 51 43 26 16 12 10 12 19 35 42 47 48 43 64 61 62 61 59 56 58 58 52 48 47 49 48 51 54 56 50 47 49 48 47 45 45 43
58 58 61 65 65 63 59 51 37 23 14 5 5 4 5 12 18 31 40 28 32 43 58 62 63 62 59 53 45 54 51 48 46 50 52 53 54 50 47 50 49 48 46 44 43
57 58 62 65 65 59 52 37 19 15 9 4 2 4 5 6 17 35 41 38 31 37 45 53 58 61 57 55 54 43 55 51 50 52 59 54 52 51 48 48 46 45 43 42 42
56 60 62 63 57 54 39 21 18 10 7 1 4 4 5 2 8 37 44 42 44 34 38 47 47 44 52 54 44 37 50 51 45 58 62 52 55 56 45 50 45 44 42 41 43
56 60 61 59 53 44 24 18 16 11 6 2 4 0 4 6 1 27 42 40 37 38 45 44 52 50 50 49 54 50 44 48 45 51 64 56 58 60 44 44 43 43 41 40 43
57 59 59 54 46 33 18 17 15 6 5 6 3 3 7 5 6 10 28 45 48 33 48 41 38 46 42 42 48 51 46 47 51 57 56 58 57 54 42 44 36 40 42 39 39
56 58 54 49 37 24 17 18 13 8 5 4 5 3 10 7 9 9 13 19 34 28 40 38 32 37 41 38 42 49 45 55 51 48 51 53 54 51 43 42 36 33 39 37 38
56 55 50 42 30 18 14 10 8 8 7 6 7 7 5 5 5 12 11 16 22 33 26 21 36 35 46 46 40 48 46 44 53 55 55 53 50 43 43 41 38 34 34 43 38
55 53 47 35 21 11 12 12 9 9 9 9 9 10 5 5 10 8 8 12 28 26 34 38 29 35 43 45 40 36 44 41 45 52 50 48 38 36 38 40 41 38 38 37 43
53 49 40 29 11 8 13 14 15 9 4 10 5 6 8 8 1 9 10 10 19 19 29 42 44 27 38 36 39 44 41 45 42 44 45 44 41 26 23 42 40 40 41 39 39
50 43 32 20 8 7 11 14 11 6 1 9 7 8 7 7 6 5 9 9 15 20 32 33 34 42 29 29 24 35 43 49 51 49 50 48 42 44 24 29 37 38 40 40 39
49 39 33 19 13 9 10 10 10 8 5 5 9 9 10 6 10 9 10 8 17 13 23 28 28 29 36 39 33 27 28 42 49 52 48 49 44 40 41 30 39 30 40 40 39
47 38 28 17 14 13 12 12 9 14 9 7 12 9 14 10 10 10 6 9 13 18 20 20 25 31 33 36 37 36 32 36 45 50 53 45 46 45 36 36 33 41 32 41 38
45 37 26 16 15 14 14 13 13 12 13 9 4 9 17 16 15 10 3 15 13 13 15 13 24 27 26 29 34 44 35 34 39 48 49 51 41 47 48 39 34 34 39 36 40
Wind_Direction
318 319 321 323 325 318 305 299 292 285 279 272 270 262 261 252 248 243 239 241 240 234 233 231 231 229 232 234 224 225 224 221 226 219 214 225 233 223 230 228 229 229 221 224 225
316 320 326 332 329 321 311 305 297 289 281 269 269 264 261 256 249 247 238 238 238 237 234 231 230 230 229 230 234 226 222 223 227 223 218 223 228 218 228 228 223 223 218 223 225
317 320 326 334 330 321 313 305 298 293 283 273 268 264 262 259 252 248 245 238 237 234 236 234 230 229 229 226 229 234 226 220 227 224 221 224 230 220 226 231 224 225 216 222 225
322 333 335 336 330 320 311 303 295 290 283 275 272 265 264 260 253 251 248 242 238 232 233 233 233 230 229 228 226 227 228 224 222 221 226 227 230 222 223 228 225 226 222 225 227
331 335 338 334 325 317 307 299 292 287 280 273 271 267 259 260 263 256 245 241 238 237 229 233 232 234 230 229 227 225 225 225 228 225 219 229 230 230 225 228 224 226 225 225 230
333 335 337 330 320 313 306 298 290 280 275 272 268 263 260 255 258 254 253 244 237 231 231 230 231 233 233 229 229 228 225 223 226 228 225 220 225 227 225 231 228 225 228 225 229
334 334 335 327 317 310 305 298 290 282 276 273 269 263 256 258 256 252 249 245 242 235 227 228 231 231 231 230 226 228 227 222 222 225 224 225 223 222 231 232 231 228 228 230 231
331 331 334 324 314 308 304 299 292 286 280 276 272 268 263 251 249 247 245 241 239 234 227 225 229 231 227 228 227 228 226 226 223 226 224 224 228 228 228 233 233 231 233 235 237
329 332 331 319 313 310 307 302 296 290 286 281 274 268 264 254 245 245 240 238 236 234 227 223 226 227 230 226 228 228 229 228 225 227 228 225 224 228 230 232 235 237 238 236 238
330 331 326 319 314 311 309 306 303 299 293 287 278 268 262 252 242 238 239 233 229 230 223 224 223 227 227 230 227 230 229 229 227 228 231 229 226 224 229 229 232 235 234 236 238
331 330 323 319 316 315 313 312 309 305 300 293 285 276 262 253 241 233 233 232 226 223 221 223 224 227 229 232 229 229 230 232 230 226 231 229 229 227 228 230 231 232 236 237 238
331 325 322 320 319 318 318 318 313 308 303 300 281 267 258 250 239 229 226 229 227 224 221 219 218 222 228 231 231 228 230 229 227 225 228 227 227 225 226 228 231 231 233 236 237
327 324 323 321 322 321 323 319 314 311 311 281 271 277 261 236 234 222 225 225 225 219 218 222 221 219 220 218 216 220 225 227 227 229 230 227 227 224 225 227 229 231 232 233 234
324 326 324 325 325 325 323 319 316 312 321 308 266 270 257 270 233 195 187 202 213 216 215 218 219 221 220 224 228 224 224 224 229 226 230 230 229 225 223 227 227 229 230 234 233
326 327 326 327 328 328 324 321 319 317 330 333 133 178 295 321 209 209 192 218 217 208 209 215 216 221 221 223 227 232 226 222 225 228 227 230 231 221 222 226 227 227 230 229 234
327 328 329 331 332 329 326 326 326 324 314 258 325 97 212 259 212 195 190 189 200 209 204 212 214 221 219 220 223 227 220 219 217 225 228 226 231 222 223 227 229 228 228 231 234
328 329 332 335 333 331 329 327 326 309 296 260 206 192 179 74 240 193 195 182 189 200 213 207 210 213 218 216 213 213 220 218 222 222 229 223 229 224 218 227 226 228 224 227 234
329 333 335 339 336 334 329 326 329 304 246 274 205 112 206 158 191 190 197 190 181 202 212 210 207 207 212 216 217 215 209 217 204 223 228 225 227 232 218 225 227 225 226 224 231
331 335 339 340 339 333 324 324 326 270 238 225 222 160 158 180 216 199 201 201 214 167 204 210 211 208 209 210 211 213 209 203 211 224 229 226 227 232 223 227 224 223 226 225 229
334 338 342 343 341 331 320 316 318 251 267 226 201 175 180 151 190 197 222 226 200 185 199 209 203 211 207 211 215 216 217 211 210 216 224 227 228 235 221 225 221 216 219 224 223
337 340 345 345 344 337 342 344 324 302 252 227 203 224 203 232 91 175 210 211 215 211 195 191 210 206 192 197 209 210 210 213 216 224 227 231 229 232 232 220 224 218 214 215 219
338 342 347 347 350 9 8 5 324 315 261 214 226 221 209 180 127 167 202 221 202 192 215 200 209 212 212 219 208 208 217 218 217 216 221 226 227 235 234 225 223 218 217 215 214
341 344 348 349 354 12 3 356 358 332 177 195 226 228 226 219 171 173 186 198 199 213 200 216 218 216 208 221 221 218 210 213 219 220 221 222 215 216 209 226 222 217 218 215 214
342 345 347 342 334 338 354 354 357 8 351 218 252 231 217 226 202 168 190 203 201 211 209 221 227 223 209 204 212 216 214 218 221 219 216 218 216 217 195 217 225 222 216 219 213
343 344 343 338 305 300 347 343 348 0 274 225 256 258 229 220 211 205 199 206 197 202 210 226 223 227 230 225 227 214 206 218 224 229 227 217 213 215 215 208 219 214 217 215 214
342 342 339 334 318 295 307 329 332 337 320 300 244 236 238 217 200 184 202 207 204 212 208 215 220 220 224 232 233 234 229 225 220 223 227 223 218 215 207 207 213 221 210 214 213
342 339 333 326 320 305 298 309 309 322 329 319 251 258 241 228 210 197 241 218 206 225 227 217 205 215 223 228 231 232 223 225 226 223 227 227 216 215 211 205 196 209 217 210 211